QPF
0.00 0.00 0.00 0.00 0.00 0.00 0.00 0.00 0.00 0.00 0.00 0.00 0.00 0.00 0.00 0.00 0.00 0.00 0.00 0.00 0.00 0.00 0.00 0.00 0.00 0.00 0.00 0.00 0.00 0.00 0.00 0.00 0.00 0.00 0.00 0.00 0.00 0.00 0.00 0.01 0.00 0.00 0.04 0.09 0.00
0.00 0.00 0.00 0.00 0.00 0.00 0.00 0.00 0.00 0.00 0.00 0.00 0.00 0.00 0.00 0.00 0.00 0.00 0.00 0.00 0.00 0.00 0.00 0.00 0.00 0.00 0.00 0.00 0.00 0.00 0.00 0.00 0.00 0.00 0.00 0.00 0.00 0.00 0.00 0.03 0.00 0.01 0.04 0.02 0.00
0.00 0.00 0.00 0.00 0.00 0.00 0.00 0.00 0.00 0.00 0.00 0.00 0.00 0.00 0.00 0.00 0.00 0.00 0.00 0.00 0.00 0.00 0.00 0.00 0.00 0.00 0.00 0.00 0.00 0.00 0.00 0.00 0.00 0.01 0.00 0.00 0.00 0.00 0.00 0.00 0.00 0.01 0.00 0.00 0.00
0.00 0.00 0.00 0.00 0.00 0.00 0.00 0.00 0.00 0.00 0.00 0.00 0.00 0.00 0.00 0.00 0.00 0.00 0.00 0.00 0.00 0.00 0.00 0.00 0.00 0.00 0.00 0.00 0.00 0.00 0.00 0.00 0.00 0.00 0.01 0.01 0.00 0.00 0.00 0.00 0.00 0.00 0.00 0.00 0.00
0.00 0.00 0.00 0.00 0.00 0.00 0.00 0.00 0.00 0.00 0.00 0.00 0.00 0.00 0.00 0.00 0.00 0.00 0.00 0.00 0.00 0.00 0.00 0.00 0.00 0.00 0.00 0.00 0.00 0.00 0.00 0.00 0.00 0.00 0.00 0.00 0.00 0.00 0.00 0.00 0.00 0.00 0.00 0.00 0.00
0.00 0.00 0.00 0.00 0.00 0.00 0.00 0.00 0.00 0.00 0.00 0.00 0.00 0.00 0.00 0.00 0.00 0.00 0.00 0.00 0.00 0.00 0.00 0.00 0.00 0.00 0.00 0.00 0.00 0.00 0.00 0.00 0.00 0.00 0.00 0.00 0.00 0.00 0.00 0.00 0.00 0.00 0.00 0.00 0.00
0.00 0.00 0.00 0.00 0.00 0.00 0.00 0.00 0.00 0.00 0.00 0.00 0.00 0.00 0.00 0.00 0.00 0.00 0.00 0.00 0.00 0.00 0.00 0.00 0.00 0.00 0.00 0.00 0.00 0.00 0.00 0.00 0.00 0.00 0.00 0.00 0.00 0.00 0.00 0.00 0.00 0.00 0.00 0.00 0.00
0.00 0.00 0.00 0.00 0.00 0.00 0.00 0.00 0.00 0.00 0.00 0.00 0.00 0.00 0.00 0.00 0.00 0.00 0.00 0.00 0.00 0.00 0.00 0.00 0.00 0.00 0.00 0.00 0.00 0.00 0.00 0.00 0.00 0.01 0.00 0.00 0.00 0.00 0.00 0.00 0.00 0.00 0.00 0.00 0.00
0.00 0.00 0.00 0.00 0.00 0.00 0.00 0.00 0.00 0.00 0.00 0.00 0.00 0.00 0.00 0.00 0.00 0.00 0.00 0.00 0.00 0.00 0.00 0.00 0.00 0.00 0.00 0.00 0.00 0.00 0.00 0.00 0.01 0.01 0.00 0.00 0.00 0.00 0.00 0.00 0.00 0.00 0.00 0.00 0.00
0.00 0.00 0.00 0.00 0.00 0.00 0.00 0.00 0.00 0.00 0.00 0.00 0.00 0.00 0.00 0.00 0.00 0.00 0.00 0.00 0.00 0.00 0.00 0.00 0.00 0.00 0.00 0.00 0.00 0.00 0.00 0.00 0.00 0.01 0.01 0.00 0.00 0.00 0.00 0.00 0.00 0.00 0.00 0.00 0.00
0.00 0.00 0.00 0.00 0.00 0.00 0.00 0.00 0.00 0.00 0.00 0.00 0.00 0.00 0.00 0.00 0.00 0.00 0.00 0.00 0.00 0.00 0.00 0.00 0.00 0.00 0.00 0.00 0.00 0.00 0.00 0.00 0.00 0.00 0.00 0.00 0.00 0.00 0.00 0.00 0.00 0.00 0.00 0.00 0.00
0.00 0.00 0.00 0.00 0.00 0.00 0.00 0.00 0.00 0.00 0.00 0.00 0.00 0.00 0.00 0.00 0.00 0.00 0.00 0.00 0.00 0.00 0.00 0.00 0.00 0.00 0.00 0.00 0.00 0.00 0.00 0.00 0.00 0.00 0.00 0.00 0.00 0.00 0.00 0.00 0.00 0.00 0.00 0.00 0.00
0.00 0.00 0.00 0.00 0.00 0.00 0.00 0.00 0.00 0.00 0.00 0.00 0.00 0.00 0.00 0.00 0.00 0.00 0.00 0.00 0.00 0.00 0.00 0.00 0.00 0.00 0.00 0.00 0.00 0.00 0.00 0.00 0.00 0.00 0.00 0.00 0.00 0.00 0.00 0.00 0.00 0.00 0.00 0.00 0.00
0.00 0.00 0.00 0.00 0.00 0.00 0.00 0.00 0.00 0.00 0.00 0.00 0.00 0.00 0.00 0.00 0.00 0.00 0.00 0.00 0.00 0.00 0.00 0.00 0.00 0.00 0.00 0.00 0.00 0.00 0.00 0.00 0.00 0.00 0.00 0.00 0.00 0.00 0.00 0.00 0.00 0.00 0.00 0.00 0.00
0.00 0.00 0.00 0.00 0.00 0.00 0.00 0.00 0.00 0.00 0.00 0.00 0.00 0.00 0.00 0.00 0.00 0.00 0.00 0.00 0.00 0.00 0.00 0.00 0.00 0.00 0.00 0.00 0.00 0.00 0.00 0.00 0.00 0.00 0.00 0.00 0.00 0.00 0.00 0.00 0.00 0.00 0.00 0.00 0.00
0.00 0.00 0.00 0.00 0.00 0.00 0.00 0.00 0.00 0.00 0.00 0.00 0.00 0.00 0.00 0.00 0.00 0.00 0.00 0.00 0.00 0.00 0.00 0.00 0.00 0.00 0.00 0.00 0.00 0.00 0.00 0.00 0.00 0.00 0.00 0.00 0.00 0.00 0.00 0.00 0.00 0.00 0.00 0.00 0.00
0.00 0.00 0.00 0.00 0.00 0.00 0.00 0.00 0.00 0.00 0.00 0.00 0.00 0.00 0.00 0.00 0.00 0.00 0.00 0.00 0.00 0.00 0.00 0.00 0.00 0.00 0.00 0.00 0.00 0.00 0.00 0.00 0.00 0.00 0.00 0.00 0.00 0.00 0.00 0.00 0.00 0.00 0.01 0.01 0.01
0.00 0.00 0.00 0.00 0.00 0.00 0.00 0.00 0.00 0.00 0.00 0.00 0.00 0.00 0.00 0.00 0.00 0.00 0.00 0.00 0.00 0.00 0.00 0.00 0.00 0.00 0.00 0.00 0.00 0.00 0.00 0.00 0.00 0.00 0.00 0.00 0.00 0.00 0.00 0.00 0.00 0.00 0.00 0.00 0.00
0.00 0.00 0.00 0.00 0.00 0.00 0.00 0.00 0.00 0.00 0.00 0.00 0.00 0.00 0.00 0.00 0.00 0.00 0.00 0.00 0.00 0.00 0.00 0.00 0.00 0.00 0.00 0.00 0.00 0.00 0.00 0.00 0.00 0.00 0.00 0.00 0.00 0.00 0.00 0.00 0.00 0.00 0.00 0.00 0.00
0.00 0.00 0.00 0.00 0.00 0.00 0.00 0.00 0.00 0.00 0.00 0.00 0.00 0.00 0.00 0.00 0.00 0.00 0.00 0.00 0.00 0.00 0.00 0.00 0.00 0.00 0.00 0.00 0.00 0.00 0.00 0.00 0.00 0.00 0.00 0.00 0.00 0.00 0.00 0.00 0.00 0.00 0.00 0.00 0.00
0.00 0.00 0.00 0.00 0.00 0.00 0.00 0.00 0.00 0.00 0.00 0.00 0.00 0.00 0.00 0.00 0.00 0.00 0.00 0.00 0.00 0.00 0.00 0.00 0.00 0.00 0.00 0.00 0.00 0.00 0.00 0.00 0.00 0.00 0.00 0.00 0.00 0.00 0.00 0.00 0.00 0.00 0.00 0.00 0.00
0.00 0.00 0.00 0.00 0.00 0.00 0.00 0.00 0.00 0.00 0.00 0.00 0.00 0.00 0.00 0.00 0.00 0.00 0.00 0.00 0.00 0.00 0.00 0.00 0.00 0.00 0.00 0.00 0.00 0.00 0.00 0.00 0.00 0.00 0.00 0.00 0.00 0.00 0.00 0.00 0.00 0.00 0.00 0.00 0.00
0.00 0.00 0.00 0.00 0.00 0.00 0.00 0.00 0.00 0.00 0.00 0.00 0.00 0.00 0.00 0.00 0.00 0.00 0.00 0.00 0.00 0.00 0.00 0.00 0.00 0.00 0.00 0.00 0.00 0.00 0.00 0.00 0.00 0.00 0.00 0.00 0.00 0.00 0.00 0.00 0.00 0.00 0.00 0.00 0.00
0.00 0.00 0.00 0.00 0.00 0.00 0.00 0.00 0.00 0.00 0.00 0.00 0.00 0.00 0.00 0.00 0.00 0.00 0.00 0.00 0.00 0.00 0.00 0.00 0.00 0.00 0.00 0.00 0.00 0.00 0.00 0.00 0.00 0.00 0.00 0.00 0.00 0.00 0.00 0.00 0.00 0.00 0.00 0.00 0.00
0.00 0.00 0.00 0.00 0.00 0.00 0.00 0.00 0.00 0.00 0.00 0.00 0.00 0.00 0.00 0.00 0.00 0.00 0.00 0.00 0.00 0.00 0.00 0.00 0.00 0.00 0.00 0.00 0.00 0.00 0.00 0.00 0.00 0.00 0.00 0.00 0.00 0.00 0.00 0.00 0.00 0.00 0.00 0.00 0.00
0.00 0.00 0.00 0.00 0.00 0.00 0.00 0.00 0.00 0.00 0.00 0.00 0.00 0.00 0.00 0.00 0.00 0.00 0.00 0.00 0.00 0.00 0.00 0.00 0.00 0.00 0.00 0.00 0.00 0.00 0.00 0.00 0.00 0.00 0.00 0.00 0.00 0.00 0.00 0.00 0.00 0.00 0.00 0.00 0.00
0.00 0.00 0.00 0.00 0.00 0.00 0.00 0.00 0.00 0.00 0.00 0.00 0.00 0.00 0.00 0.00 0.00 0.00 0.00 0.00 0.00 0.00 0.00 0.00 0.00 0.00 0.00 0.00 0.00 0.00 0.00 0.00 0.00 0.00 0.00 0.00 0.00 0.00 0.00 0.00 0.00 0.00 0.00 0.00 0.00
MSLP
1015.96 1015.71 1015.50 1015.30 1015.07 1014.86 1014.62 1014.39 1014.18 1013.97 1013.77 1013.57 1013.37 1013.23 1013.00 1012.68 1012.17 1012.03 1011.35 1009.71 1009.62 1009.44 1009.24 1009.29 1009.21 1009.21 1009.25 1009.58 1009.85 1010.39 1011.60 1012.04 1011.14 1010.38 1009.78 1008.86 1008.33 1008.40 1008.74 1009.42 1009.29 1008.87 1008.26 1007.50 1008.20
1015.92 1015.62 1015.36 1015.11 1014.87 1014.62 1014.40 1014.14 1013.94 1013.77 1013.63 1013.47 1013.34 1013.19 1012.91 1012.61 1012.34 1011.34 1009.22 1009.20 1009.34 1009.42 1009.43 1009.46 1009.56 1009.41 1009.89 1009.99 1010.28 1010.77 1011.66 1011.46 1010.42 1009.96 1009.50 1008.96 1008.27 1008.78 1008.82 1009.74 1009.56 1009.51 1009.72 1008.65 1009.01
1015.89 1015.53 1015.22 1014.91 1014.66 1014.47 1014.23 1013.96 1013.71 1013.55 1013.44 1013.36 1013.29 1013.13 1012.89 1012.71 1012.02 1009.63 1008.60 1008.86 1009.28 1009.38 1009.50 1009.60 1009.61 1009.66 1010.03 1010.10 1010.38 1010.76 1011.01 1010.72 1009.96 1009.93 1009.66 1009.47 1008.58 1007.74 1008.70 1009.34 1009.06 1009.03 1008.99 1008.96 1009.28
1015.95 1015.56 1015.22 1014.88 1014.57 1014.33 1014.07 1013.84 1013.66 1013.50 1013.37 1013.27 1013.17 1012.95 1012.61 1012.31 1011.12 1008.96 1008.64 1008.66 1009.09 1009.28 1009.48 1009.65 1009.78 1010.12 1010.36 1010.39 1010.21 1010.46 1010.23 1010.18 1009.72 1009.46 1009.47 1009.33 1008.67 1008.66 1008.18 1008.13 1008.43 1008.11 1008.38 1008.91 1009.26
1016.13 1015.66 1015.27 1014.91 1014.53 1014.17 1013.89 1013.64 1013.48 1013.37 1013.27 1013.21 1013.09 1012.87 1012.56 1011.83 1010.12 1008.88 1008.84 1009.07 1009.28 1009.46 1009.67 1009.81 1009.91 1010.16 1010.34 1010.35 1010.25 1010.25 1009.87 1009.83 1009.38 1009.19 1008.76 1008.86 1009.17 1008.96 1008.56 1007.37 1007.69 1008.26 1008.17 1009.00 1009.37
1016.28 1015.82 1015.37 1014.93 1014.52 1014.14 1013.83 1013.60 1013.42 1013.30 1013.25 1013.18 1013.15 1013.03 1012.64 1011.02 1008.82 1008.84 1009.00 1009.30 1009.44 1009.59 1009.83 1009.96 1009.97 1009.98 1010.24 1010.30 1010.29 1009.83 1009.71 1009.56 1009.32 1009.17 1009.00 1008.65 1008.52 1009.33 1008.28 1007.93 1009.07 1008.50 1008.91 1009.09 1009.23
1016.35 1015.87 1015.39 1014.93 1014.53 1014.14 1013.79 1013.50 1013.30 1013.20 1013.18 1013.19 1013.20 1013.19 1012.41 1009.76 1008.79 1008.90 1009.06 1009.17 1009.27 1009.37 1009.68 1009.75 1009.75 1010.02 1010.13 1010.27 1009.97 1009.87 1009.87 1009.51 1009.20 1009.25 1009.00 1008.68 1008.64 1007.96 1007.71 1007.71 1008.17 1009.30 1009.17 1008.67 1010.14
1016.34 1015.84 1015.36 1014.83 1014.38 1014.00 1013.59 1013.22 1013.07 1013.07 1013.15 1013.18 1013.17 1013.04 1011.27 1008.68 1008.63 1008.89 1008.93 1008.89 1008.95 1009.22 1009.40 1009.39 1009.65 1010.09 1010.32 1010.30 1010.36 1010.48 1010.43 1010.22 1009.90 1009.45 1009.10 1008.80 1008.81 1007.92 1007.25 1008.22 1008.89 1009.20 1009.82 1010.75 1011.16
1016.20 1015.69 1015.18 1014.68 1014.21 1013.81 1013.34 1012.85 1012.67 1012.82 1013.02 1013.09 1013.14 1012.63 1010.22 1008.37 1008.27 1008.05 1008.27 1008.55 1008.62 1009.02 1009.32 1009.42 1009.76 1010.47 1010.67 1011.10 1011.46 1011.63 1011.30 1010.86 1010.29 1009.67 1009.61 1009.62 1009.12 1008.43 1008.06 1008.01 1009.09 1010.10 1010.79 1011.64 1011.83
1016.15 1015.58 1014.97 1014.45 1013.99 1013.57 1013.05 1012.57 1012.60 1012.77 1013.02 1013.01 1012.68 1012.33 1009.69 1008.78 1008.16 1007.89 1008.00 1008.20 1008.43 1008.86 1009.32 1009.73 1010.61 1011.11 1011.66 1011.79 1012.20 1012.05 1011.67 1011.22 1010.88 1010.26 1010.22 1010.54 1010.08 1010.08 1009.28 1009.11 1009.58 1010.26 1011.74 1012.53 1012.99
1016.10 1015.36 1014.79 1014.20 1013.79 1013.43 1013.03 1013.04 1013.17 1012.84 1012.57 1011.92 1011.39 1010.83 1009.49 1008.57 1008.11 1007.81 1007.76 1008.04 1008.48 1009.11 1009.98 1010.49 1011.26 1011.37 1011.42 1011.56 1011.55 1011.58 1011.65 1011.46 1010.84 1010.25 1010.32 1010.59 1011.61 1011.88 1010.74 1010.73 1011.57 1011.78 1012.99 1013.55 1014.44
1016.10 1015.33 1014.49 1013.92 1013.49 1013.15 1013.03 1012.89 1012.51 1012.52 1012.03 1010.67 1010.39 1010.01 1009.07 1008.71 1008.46 1007.90 1007.76 1008.32 1008.80 1009.56 1010.13 1010.90 1011.05 1010.67 1010.81 1011.01 1011.20 1011.47 1011.57 1011.40 1010.82 1010.47 1010.60 1011.72 1013.32 1013.05 1012.98 1013.43 1013.79 1014.37 1014.75 1015.08 1015.61
1015.99 1015.26 1014.42 1013.61 1013.14 1013.01 1012.78 1012.17 1011.78 1012.04 1012.17 1010.29 1009.56 1009.01 1008.38 1008.58 1008.31 1007.90 1007.92 1008.32 1008.97 1009.65 1010.21 1010.76 1010.41 1010.21 1010.43 1010.64 1010.86 1011.07 1011.23 1011.11 1011.13 1011.13 1011.52 1012.35 1014.05 1014.90 1015.44 1015.57 1015.72 1016.24 1016.70 1016.62 1017.14
1015.78 1015.02 1014.34 1013.44 1013.15 1012.91 1012.21 1011.59 1011.61 1011.74 1012.00 1010.18 1008.92 1007.86 1007.91 1007.98 1008.09 1007.73 1007.78 1008.38 1008.99 1009.65 1010.17 1010.49 1010.13 1010.07 1010.16 1010.46 1010.69 1010.91 1010.93 1011.15 1011.54 1012.17 1013.05 1013.36 1015.47 1017.06 1017.76 1017.80 1017.82 1018.36 1018.26 1018.46 1018.62
1015.52 1014.74 1014.24 1014.00 1013.66 1012.73 1011.79 1011.52 1011.39 1011.59 1011.57 1009.64 1008.30 1007.28 1007.63 1008.19 1008.22 1008.16 1008.12 1008.34 1009.25 1009.90 1010.42 1010.64 1010.26 1010.16 1010.28 1010.59 1010.56 1011.22 1011.23 1012.11 1012.66 1013.65 1014.46 1015.12 1016.44 1018.90 1018.96 1019.59 1019.96 1020.04 1019.86 1020.09 1020.32
1015.03 1014.39 1013.94 1013.78 1013.73 1011.79 1011.34 1011.30 1011.51 1012.18 1010.90 1009.25 1008.11 1007.80 1008.20 1008.39 1008.61 1008.66 1008.90 1009.17 1009.82 1010.41 1010.86 1011.06 1010.43 1010.37 1010.44 1010.70 1010.99 1011.49 1012.30 1013.61 1014.56 1015.49 1016.61 1017.27 1018.31 1020.53 1020.75 1021.31 1021.60 1021.42 1021.41 1021.61 1021.66
1014.61 1013.62 1013.62 1013.08 1012.42 1011.52 1011.46 1011.81 1012.79 1012.10 1010.49 1009.58 1008.75 1008.53 1008.79 1009.22 1009.57 1009.82 1010.76 1011.26 1011.75 1011.92 1012.58 1011.89 1011.38 1010.88 1010.74 1011.06 1011.47 1012.24 1013.86 1015.41 1016.62 1017.36 1018.38 1018.45 1019.71 1022.36 1022.23 1022.44 1022.72 1022.62 1022.63 1022.77 1022.66
1014.29 1013.15 1013.02 1012.46 1011.89 1011.60 1011.97 1013.07 1013.02 1011.56 1010.51 1009.55 1009.17 1009.14 1009.58 1009.88 1010.64 1011.12 1011.79 1012.66 1012.68 1012.93 1013.70 1013.47 1012.59 1012.03 1011.65 1011.85 1012.43 1013.49 1014.77 1016.24 1017.62 1018.87 1019.35 1019.42 1021.36 1022.75 1023.21 1023.30 1023.44 1023.56 1023.71 1023.50 1023.42
1014.10 1013.00 1012.86 1012.08 1011.91 1012.03 1012.90 1013.63 1012.48 1011.43 1010.36 1009.81 1009.68 1009.91 1010.37 1010.52 1011.00 1011.83 1012.83 1013.40 1013.63 1013.58 1013.99 1014.25 1013.66 1012.83 1012.49 1012.39 1012.95 1013.99 1015.29 1016.37 1018.06 1019.68 1020.26 1021.42 1022.72 1023.15 1023.63 1023.91 1024.12 1024.30 1024.30 1024.39 1024.33
1015.41 1014.31 1013.03 1011.83 1011.88 1012.26 1013.41 1013.55 1012.30 1011.05 1010.15 1009.89 1010.20 1010.59 1011.16 1011.51 1011.86 1012.50 1013.30 1013.75 1013.89 1014.02 1014.09 1014.99 1014.83 1014.13 1013.51 1013.28 1013.66 1014.27 1015.79 1017.07 1018.58 1020.49 1021.55 1021.91 1022.58 1022.76 1023.79 1024.46 1024.67 1024.76 1024.94 1024.90 1024.82
1015.74 1014.53 1012.61 1012.00 1012.11 1013.13 1014.15 1013.53 1012.08 1010.70 1010.16 1010.13 1010.42 1010.99 1011.67 1012.10 1012.63 1013.35 1013.89 1014.11 1014.06 1014.45 1014.58 1015.47 1015.97 1015.62 1014.96 1015.47 1015.62 1015.69 1016.66 1018.15 1019.51 1020.82 1021.91 1022.77 1022.82 1022.67 1023.86 1024.72 1025.27 1025.46 1025.43 1025.42 1025.31
1017.13 1015.49 1012.72 1012.19 1013.37 1014.56 1014.33 1013.15 1011.91 1010.65 1010.21 1010.28 1010.71 1011.28 1012.04 1012.67 1013.38 1013.86 1014.20 1014.37 1014.33 1014.69 1015.74 1016.65 1017.36 1017.53 1017.11 1016.54 1016.51 1016.70 1017.73 1018.84 1020.31 1021.74 1022.47 1022.94 1023.28 1023.52 1024.27 1024.93 1025.37 1025.73 1025.85 1025.78 1025.80
1018.66 1016.83 1013.25 1012.79 1014.40 1015.10 1014.25 1013.12 1011.98 1011.08 1010.96 1010.97 1011.54 1011.94 1012.57 1013.54 1014.22 1014.43 1014.68 1014.91 1014.79 1015.39 1016.31 1017.04 1018.67 1018.78 1018.36 1017.82 1017.34 1017.87 1018.50 1019.48 1020.59 1021.60 1022.62 1023.59 1023.92 1024.23 1024.69 1025.19 1025.51 1025.80 1025.88 1026.01 1025.92
1019.13 1018.11 1015.98 1015.18 1015.68 1015.60 1015.03 1013.59 1012.34 1011.56 1011.79 1011.88 1012.46 1012.60 1013.38 1014.35 1014.74 1015.11 1015.33 1015.57 1015.54 1016.14 1016.79 1017.51 1019.40 1019.79 1019.70 1019.18 1019.09 1019.09 1019.32 1019.69 1020.67 1022.07 1022.77 1023.19 1023.91 1024.66 1025.01 1025.36 1025.60 1025.73 1025.84 1026.03 1026.08
1019.83 1020.07 1019.40 1018.15 1016.97 1016.55 1015.75 1014.24 1013.02 1012.47 1012.37 1012.58 1013.34 1013.71 1014.15 1015.09 1015.46 1015.79 1015.85 1016.14 1016.44 1016.94 1017.58 1018.45 1020.07 1020.30 1020.16 1019.80 1019.59 1019.86 1020.06 1020.28 1021.05 1022.08 1022.92 1023.55 1023.96 1024.46 1024.83 1025.21 1025.55 1025.93 1026.24 1026.37 1026.24
1020.96 1020.92 1020.12 1018.95 1017.90 1016.94 1015.67 1014.36 1013.58 1013.38 1013.27 1013.56 1013.98 1014.47 1014.69 1015.30 1015.54 1016.02 1016.26 1016.68 1016.99 1017.65 1018.47 1019.55 1020.75 1021.01 1020.95 1020.59 1020.54 1020.70 1020.81 1021.07 1021.67 1022.58 1023.13 1023.69 1024.19 1024.43 1024.84 1025.36 1025.86 1026.26 1026.50 1026.45 1026.15
1021.40 1021.19 1020.92 1019.47 1018.23 1017.36 1016.25 1014.88 1014.09 1013.90 1014.05 1014.01 1014.47 1014.98 1015.48 1015.80 1015.96 1016.29 1016.59 1016.95 1017.28 1018.08 1019.44 1020.47 1021.51 1022.48 1022.23 1021.78 1021.50 1021.75 1021.40 1021.68 1022.34 1022.76 1023.19 1023.82 1024.13 1024.63 1025.19 1025.73 1026.17 1026.58 1026.85 1026.73 1026.34
Thickness
5711 5712 5714 5715 5718 5720 5722 5725 5728 5731 5734 5737 5739 5742 5745 5748 5754 5756 5757 5775 5778 5781 5783 5782 5781 5779 5778 5771 5774 5766 5729 5723 5746 5745 5754 5764 5772 5789 5789 5776 5790 5800 5809 5822 5822
5709 5711 5713 5715 5718 5720 5722 5725 5727 5729 5731 5734 5736 5738 5741 5745 5747 5751 5775 5777 5776 5775 5772 5768 5764 5769 5754 5758 5755 5741 5720 5730 5757 5763 5759 5760 5772 5768 5774 5766 5773 5781 5789 5809 5814
5707 5710 5712 5715 5717 5719 5721 5724 5727 5728 5730 5731 5732 5735 5738 5740 5745 5759 5775 5774 5771 5770 5768 5766 5763 5759 5747 5750 5746 5736 5727 5741 5756 5755 5761 5754 5758 5777 5767 5757 5771 5773 5785 5798 5802
5705 5708 5711 5713 5716 5718 5720 5723 5725 5726 5728 5730 5731 5733 5737 5741 5727 5765 5771 5771 5768 5766 5761 5755 5750 5740 5732 5732 5741 5731 5745 5743 5755 5756 5756 5754 5762 5759 5768 5768 5779 5789 5791 5791 5793
5702 5705 5708 5711 5714 5717 5719 5721 5723 5725 5726 5727 5728 5731 5734 5733 5739 5764 5765 5763 5762 5758 5750 5744 5737 5731 5724 5726 5729 5725 5741 5741 5752 5754 5762 5761 5740 5746 5757 5781 5783 5784 5787 5783 5783
5700 5703 5705 5708 5712 5715 5717 5720 5721 5723 5723 5724 5725 5726 5729 5725 5760 5761 5760 5757 5754 5749 5742 5739 5733 5732 5723 5720 5719 5728 5735 5741 5745 5749 5750 5753 5753 5738 5753 5766 5757 5765 5772 5775 5781
5698 5701 5704 5706 5709 5712 5715 5718 5720 5721 5722 5722 5721 5722 5722 5733 5757 5757 5755 5752 5751 5747 5737 5738 5737 5728 5722 5713 5726 5726 5724 5734 5743 5743 5743 5750 5741 5741 5772 5768 5756 5759 5769 5779 5763
5697 5700 5703 5706 5709 5712 5715 5718 5720 5720 5719 5719 5718 5719 5719 5756 5756 5752 5752 5749 5750 5746 5742 5742 5737 5725 5717 5720 5712 5710 5709 5700 5725 5732 5739 5739 5712 5752 5768 5754 5744 5757 5756 5754 5756
5697 5701 5703 5706 5709 5712 5716 5720 5722 5720 5717 5717 5716 5716 5720 5755 5748 5756 5754 5745 5746 5742 5739 5740 5732 5714 5711 5694 5682 5684 5683 5695 5706 5726 5730 5729 5727 5747 5759 5754 5745 5735 5743 5740 5744
5696 5700 5704 5707 5710 5713 5718 5721 5720 5718 5716 5715 5716 5711 5734 5731 5746 5753 5753 5749 5740 5735 5728 5723 5705 5695 5685 5680 5659 5676 5683 5690 5691 5716 5717 5710 5718 5721 5736 5742 5740 5740 5731 5728 5725
5694 5700 5704 5708 5710 5713 5717 5716 5711 5710 5714 5716 5718 5720 5727 5741 5748 5745 5750 5742 5735 5721 5702 5706 5691 5681 5691 5691 5693 5692 5687 5686 5698 5711 5720 5714 5697 5704 5720 5725 5720 5724 5716 5715 5709
5691 5697 5703 5708 5711 5714 5714 5711 5712 5712 5698 5722 5721 5721 5731 5736 5723 5734 5746 5725 5719 5701 5706 5690 5682 5700 5705 5697 5693 5688 5683 5681 5698 5713 5714 5700 5682 5696 5700 5701 5701 5697 5698 5698 5696
5689 5695 5701 5708 5712 5713 5712 5714 5719 5715 5693 5712 5723 5723 5730 5731 5721 5725 5735 5724 5711 5700 5697 5684 5698 5708 5702 5696 5693 5688 5682 5688 5692 5702 5706 5699 5678 5675 5679 5682 5684 5682 5681 5683 5678
5687 5693 5699 5707 5709 5709 5710 5718 5717 5715 5671 5696 5715 5726 5731 5732 5717 5737 5736 5724 5711 5699 5693 5691 5702 5702 5697 5694 5691 5685 5701 5701 5698 5685 5670 5690 5655 5654 5654 5658 5662 5659 5662 5662 5663
5684 5691 5696 5698 5701 5703 5714 5716 5717 5709 5647 5706 5715 5742 5731 5717 5721 5720 5733 5723 5701 5697 5694 5689 5693 5691 5687 5690 5698 5689 5698 5688 5687 5669 5666 5660 5642 5633 5644 5640 5638 5641 5645 5643 5642
5684 5689 5693 5696 5695 5710 5714 5714 5708 5662 5649 5695 5714 5710 5709 5712 5712 5717 5711 5715 5708 5692 5689 5685 5699 5697 5693 5691 5690 5692 5681 5662 5652 5643 5624 5640 5630 5618 5619 5627 5624 5626 5627 5626 5626
5683 5691 5691 5696 5700 5709 5709 5698 5655 5645 5694 5689 5697 5704 5699 5695 5694 5696 5683 5672 5666 5664 5654 5670 5678 5686 5692 5682 5682 5673 5652 5624 5627 5614 5611 5631 5616 5590 5604 5610 5610 5610 5612 5611 5611
5681 5691 5692 5696 5701 5703 5697 5667 5648 5673 5679 5699 5696 5696 5686 5689 5683 5682 5675 5658 5667 5661 5641 5642 5643 5667 5680 5676 5667 5654 5644 5615 5623 5602 5608 5619 5598 5585 5595 5598 5600 5601 5599 5601 5600
5677 5685 5689 5694 5697 5695 5674 5641 5651 5668 5688 5687 5688 5676 5671 5682 5679 5671 5661 5656 5659 5662 5645 5637 5647 5667 5672 5674 5669 5655 5633 5639 5608 5601 5598 5591 5584 5590 5590 5588 5589 5589 5591 5587 5585
5659 5668 5678 5690 5691 5684 5657 5646 5663 5681 5690 5688 5670 5673 5662 5662 5665 5661 5658 5661 5660 5659 5660 5645 5634 5653 5658 5665 5660 5656 5644 5624 5606 5601 5595 5595 5589 5587 5585 5580 5581 5578 5577 5577 5576
5654 5662 5677 5684 5682 5661 5640 5644 5665 5684 5688 5681 5671 5666 5663 5661 5657 5650 5650 5657 5662 5656 5653 5643 5631 5635 5643 5631 5630 5630 5626 5609 5602 5591 5582 5576 5587 5588 5577 5573 5568 5564 5567 5564 5562
5634 5648 5673 5676 5649 5630 5638 5651 5669 5680 5684 5680 5674 5669 5663 5659 5650 5646 5644 5651 5658 5655 5638 5631 5614 5610 5623 5631 5630 5629 5619 5605 5582 5601 5572 5572 5578 5577 5566 5564 5561 5556 5553 5551 5546
5618 5626 5663 5666 5632 5630 5639 5652 5665 5671 5667 5669 5664 5664 5657 5646 5637 5642 5642 5646 5650 5642 5635 5629 5600 5586 5594 5612 5619 5610 5613 5598 5585 5573 5581 5567 5576 5565 5561 5558 5553 5546 5541 5536 5535
5614 5620 5632 5635 5627 5631 5630 5639 5652 5663 5655 5654 5652 5656 5646 5634 5629 5632 5633 5634 5641 5634 5631 5620 5590 5589 5577 5595 5595 5600 5600 5601 5588 5547 5578 5574 5557 5553 5554 5549 5543 5538 5531 5526 5523
5596 5600 5600 5603 5617 5615 5619 5630 5642 5643 5650 5646 5642 5637 5637 5625 5622 5622 5627 5628 5629 5628 5620 5609 5592 5598 5596 5598 5600 5593 5591 5592 5590 5577 5568 5563 5555 5547 5546 5541 5534 5528 5519 5515 5512
5584 5582 5584 5591 5600 5609 5618 5631 5633 5632 5638 5634 5630 5627 5628 5620 5619 5614 5621 5621 5623 5619 5612 5596 5583 5594 5593 5594 5587 5582 5582 5577 5572 5561 5555 5550 5547 5545 5539 5530 5522 5512 5504 5502 5501
5568 5570 5572 5587 5597 5602 5606 5619 5627 5627 5627 5630 5624 5619 5617 5616 5621 5622 5618 5615 5619 5612 5599 5592 5575 5560 5580 5576 5577 5561 5573 5568 5560 5556 5553 5548 5546 5533 5526 5516 5506 5497 5490 5487 5490